Time,TemperatureF,DewpointF,PressureIn,WindDirection,WindDirectionDegrees,WindSpeedMPH,WindSpeedGustMPH,Humidity,HourlyPrecipIn,Conditions,Clouds,dailyrainin,SoftwareType,DateUTC
2013-08-14 00:04:00,61.0,44.7,30.02,WSW,247,0.0,0.0,55,0.00,,,0.00,WUHU21623XXSP,2013-08-14 07:04:00,
2013-08-14 00:10:00,61.0,44.7,30.02,WSW,247,0.0,0.0,55,0.00,,,0.00,WUHU21623XXSP,2013-08-14 07:10:00,
2013-08-14 00:15:00,60.6,44.3,30.02,WSW,247,0.0,0.0,55,0.00,,,0.00,WUHU21623XXSP,2013-08-14 07:15:00,
2013-08-14 00:20:00,60.4,44.2,30.02,WSW,247,0.0,0.0,55,0.00,,,0.00,WUHU21623XXSP,2013-08-14 07:20:00,
2013-08-14 00:25:00,60.1,43.8,30.01,WSW,247,0.0,0.0,55,0.00,,,0.00,WUHU21623XXSP,2013-08-14 07:25:00,
2013-08-14 00:31:00,60.1,43.8,30.01,WSW,247,0.0,0.0,55,0.00,,,0.00,WUHU21623XXSP,2013-08-14 07:31:00,
2013-08-14 00:36:00,59.9,43.6,30.01,WSW,247,0.0,0.0,55,0.00,,,0.00,WUHU21623XXSP,2013-08-14 07:36:00,
2013-08-14 00:41:00,59.9,43.6,30.01,WSW,247,0.0,0.0,55,0.00,,,0.00,WUHU21623XXSP,2013-08-14 07:41:00,
2013-08-14 00:46:00,59.9,43.6,30.01,WSW,247,0.0,0.0,55,0.00,,,0.00,WUHU21623XXSP,2013-08-14 07:46:00,
2013-08-14 00:52:00,59.9,43.6,30.02,WSW,247,0.0,0.0,55,0.00,,,0.00,WUHU21623XXSP,2013-08-14 07:52:00,
2013-08-14 00:57:00,59.9,43.6,30.02,WSW,247,0.0,0.0,55,0.00,,,0.00,WUHU21623XXSP,2013-08-14 07:57:00,
2013-08-14 01:02:00,59.9,43.6,30.01,WSW,247,0.0,0.0,55,0.00,,,0.00,WUHU21623XXSP,2013-08-14 08:02:00,
2013-08-14 01:07:00,59.7,43.5,30.01,WSW,247,0.0,0.0,55,0.00,,,0.00,WUHU21623XXSP,2013-08-14 08:07:00,
2013-08-14 01:13:00,59.5,43.3,30.01,WSW,247,0.0,0.0,55,0.00,,,0.00,WUHU21623XXSP,2013-08-14 08:13:00,
2013-08-14 01:18:00,59.2,43.0,30.01,WSW,247,0.0,0.0,55,0.00,,,0.00,WUHU21623XXSP,2013-08-14 08:18:00,
2013-08-14 01:23:00,58.8,42.6,30.01,WSW,247,0.0,0.0,55,0.00,,,0.00,WUHU21623XXSP,2013-08-14 08:23:00,
2013-08-14 01:28:00,58.8,42.6,30.01,WSW,247,0.0,0.0,55,0.00,,,0.00,WUHU21623XXSP,2013-08-14 08:28:00,
2013-08-14 01:33:00,58.8,42.6,30.01,WSW,247,0.0,0.0,55,0.00,,,0.00,WUHU21623XXSP,2013-08-14 08:33:00,
2013-08-14 01:39:00,58.8,42.6,30.01,WSW,247,0.0,0.0,55,0.00,,,0.00,WUHU21623XXSP,2013-08-14 08:39:00,
2013-08-14 01:44:00,59.2,43.0,30.01,WSW,247,0.0,0.0,55,0.00,,,0.00,WUHU21623XXSP,2013-08-14 08:44:00,
2013-08-14 01:49:00,59.2,43.0,30.01,WSW,247,0.0,0.0,55,0.00,,,0.00,WUHU21623XXSP,2013-08-14 08:49:00,
2013-08-14 01:54:00,59.2,43.0,30.01,WSW,247,0.0,0.0,55,0.00,,,0.00,WUHU21623XXSP,2013-08-14 08:54:00,
2013-08-14 02:00:00,58.8,43.1,30.01,WSW,247,0.0,0.0,56,0.00,,,0.00,WUHU21623XXSP,2013-08-14 09:00:00,
2013-08-14 02:05:00,58.8,42.6,30.01,WSW,247,0.0,0.0,55,0.00,,,0.00,WUHU21623XXSP,2013-08-14 09:05:00,
2013-08-14 02:10:00,58.8,42.6,30.01,WSW,247,0.0,0.0,55,0.00,,,0.00,WUHU21623XXSP,2013-08-14 09:10:00,
2013-08-14 02:15:00,58.6,42.9,30.01,WSW,247,0.0,0.0,56,0.00,,,0.00,WUHU21623XXSP,2013-08-14 09:15:00,
2013-08-14 02:21:00,58.3,42.6,30.01,WSW,247,0.0,0.0,56,0.00,,,0.00,WUHU21623XXSP,2013-08-14 09:21:00,
2013-08-14 02:26:00,58.1,42.5,30.01,WSW,247,0.0,0.0,56,0.00,,,0.00,WUHU21623XXSP,2013-08-14 09:26:00,
2013-08-14 02:31:00,57.9,42.3,30.01,WSW,247,0.0,0.0,56,0.00,,,0.00,WUHU21623XXSP,2013-08-14 09:31:00,
2013-08-14 02:36:00,57.9,42.3,30.01,WSW,247,0.0,0.0,56,0.00,,,0.00,WUHU21623XXSP,2013-08-14 09:36:00,
2013-08-14 02:41:00,57.7,42.1,30.01,WSW,247,0.0,0.0,56,0.00,,,0.00,WUHU21623XXSP,2013-08-14 09:41:00,
2013-08-14 02:47:00,57.7,42.1,30.01,WSW,247,0.0,0.0,56,0.00,,,0.00,WUHU21623XXSP,2013-08-14 09:47:00,
2013-08-14 02:52:00,57.6,42.0,30.01,WSW,247,0.0,0.0,56,0.00,,,0.00,WUHU21623XXSP,2013-08-14 09:52:00,
2013-08-14 02:57:00,57.4,41.8,30.00,WSW,247,0.0,0.0,56,0.00,,,0.00,WUHU21623XXSP,2013-08-14 09:57:00,
2013-08-14 03:02:00,57.0,41.5,30.01,WSW,247,0.0,0.0,56,0.00,,,0.00,WUHU21623XXSP,2013-08-14 10:02:00,
2013-08-14 03:08:00,56.8,41.3,30.01,WSW,247,0.0,0.0,56,0.00,,,0.00,WUHU21623XXSP,2013-08-14 10:08:00,
2013-08-14 03:13:00,56.5,41.4,30.00,WSW,247,0.0,0.0,57,0.00,,,0.00,WUHU21623XXSP,2013-08-14 10:13:00,
2013-08-14 03:18:00,56.3,41.2,30.01,WSW,247,0.0,0.0,57,0.00,,,0.00,WUHU21623XXSP,2013-08-14 10:18:00,
2013-08-14 03:23:00,56.1,41.0,30.01,WSW,247,0.0,0.0,57,0.00,,,0.00,WUHU21623XXSP,2013-08-14 10:23:00,
2013-08-14 03:29:00,55.9,40.9,30.00,WSW,247,0.0,0.0,57,0.00,,,0.00,WUHU21623XXSP,2013-08-14 10:29:00,
2013-08-14 03:34:00,55.8,40.7,30.00,WSW,247,0.0,0.0,57,0.00,,,0.00,WUHU21623XXSP,2013-08-14 10:34:00,
2013-08-14 03:39:00,55.6,40.5,30.00,WSW,247,0.0,0.0,57,0.00,,,0.00,WUHU21623XXSP,2013-08-14 10:39:00,
2013-08-14 03:44:00,55.2,40.2,30.00,WSW,247,0.0,0.0,57,0.00,,,0.00,WUHU21623XXSP,2013-08-14 10:44:00,
2013-08-14 03:49:00,55.2,40.2,30.00,WSW,247,0.0,0.0,57,0.00,,,0.00,WUHU21623XXSP,2013-08-14 10:49:00,
2013-08-14 03:55:00,55.2,40.6,30.00,WSW,247,0.0,0.0,58,0.00,,,0.00,WUHU21623XXSP,2013-08-14 10:55:00,
2013-08-14 04:00:00,55.0,40.5,30.00,WSW,247,0.0,0.0,58,0.00,,,0.00,WUHU21623XXSP,2013-08-14 11:00:00,
2013-08-14 04:05:00,55.0,40.5,30.00,WSW,247,0.0,0.0,58,0.00,,,0.00,WUHU21623XXSP,2013-08-14 11:05:00,
2013-08-14 04:10:00,55.0,40.0,30.00,WSW,247,0.0,0.0,57,0.00,,,0.00,WUHU21623XXSP,2013-08-14 11:10:00,
2013-08-14 04:16:00,54.9,39.8,30.00,WSW,247,0.0,0.0,57,0.00,,,0.00,WUHU21623XXSP,2013-08-14 11:16:00,
2013-08-14 04:21:00,54.7,39.7,30.00,WSW,247,0.0,0.0,57,0.00,,,0.00,WUHU21623XXSP,2013-08-14 11:21:00,
2013-08-14 04:26:00,54.7,39.7,30.00,WSW,247,0.0,0.0,57,0.00,,,0.00,WUHU21623XXSP,2013-08-14 11:26:00,
2013-08-14 04:31:00,54.9,39.4,30.00,SW,225,0.0,0.0,56,0.00,,,0.00,WUHU21623XXSP,2013-08-14 11:31:00,
2013-08-14 04:37:00,55.0,39.5,30.00,SW,225,0.0,0.0,56,0.00,,,0.00,WUHU21623XXSP,2013-08-14 11:37:00,
2013-08-14 04:42:00,55.2,39.7,30.00,SW,225,0.0,0.0,56,0.00,,,0.00,WUHU21623XXSP,2013-08-14 11:42:00,
2013-08-14 04:47:00,55.2,39.2,30.00,SW,225,0.0,0.0,55,0.00,,,0.00,WUHU21623XXSP,2013-08-14 11:47:00,
2013-08-14 04:52:00,55.2,39.2,30.00,SW,225,0.0,0.0,55,0.00,,,0.00,WUHU21623XXSP,2013-08-14 11:52:00,
2013-08-14 04:58:00,55.2,39.2,30.00,SW,225,0.0,0.0,55,0.00,,,0.00,WUHU21623XXSP,2013-08-14 11:58:00,
2013-08-14 05:03:00,55.2,39.2,30.00,SW,225,0.0,0.0,55,0.00,,,0.00,WUHU21623XXSP,2013-08-14 12:03:00,
2013-08-14 05:08:00,55.2,39.2,30.00,SW,225,0.0,0.0,55,0.00,,,0.00,WUHU21623XXSP,2013-08-14 12:08:00,
2013-08-14 05:13:00,55.2,38.8,29.99,SW,225,0.0,0.0,54,0.00,,,0.00,WUHU21623XXSP,2013-08-14 12:13:00,
2013-08-14 05:18:00,55.2,38.8,29.99,SW,225,0.0,0.0,54,0.00,,,0.00,WUHU21623XXSP,2013-08-14 12:18:00,
2013-08-14 05:24:00,55.2,38.8,29.99,SW,225,0.0,0.0,54,0.00,,,0.00,WUHU21623XXSP,2013-08-14 12:24:00,
2013-08-14 05:29:00,55.2,38.8,29.99,SW,225,0.0,0.0,54,0.00,,,0.00,WUHU21623XXSP,2013-08-14 12:29:00,
2013-08-14 05:34:00,55.2,38.8,30.00,SW,225,0.0,0.0,54,0.00,,,0.00,WUHU21623XXSP,2013-08-14 12:34:00,
2013-08-14 05:39:00,55.2,38.8,30.00,SW,225,0.0,0.0,54,0.00,,,0.00,WUHU21623XXSP,2013-08-14 12:39:00,
2013-08-14 05:45:00,55.2,38.8,29.99,WNW,292,0.0,0.0,54,0.00,,,0.00,WUHU21623XXSP,2013-08-14 12:45:00,
2013-08-14 05:50:00,55.0,38.6,30.00,WNW,292,0.0,0.0,54,0.00,,,0.00,WUHU21623XXSP,2013-08-14 12:50:00,
2013-08-14 05:55:00,55.0,39.1,30.00,WNW,292,0.0,0.0,55,0.00,,,0.00,WUHU21623XXSP,2013-08-14 12:55:00,
2013-08-14 06:00:00,54.7,38.7,30.00,WNW,292,0.0,0.0,55,0.00,,,0.00,WUHU21623XXSP,2013-08-14 13:00:00,
2013-08-14 06:06:00,54.5,39.0,29.99,WNW,292,0.0,0.0,56,0.00,,,0.00,WUHU21623XXSP,2013-08-14 13:06:00,
2013-08-14 06:11:00,54.3,38.4,29.99,WNW,292,0.0,0.0,55,0.00,,,0.00,WUHU21623XXSP,2013-08-14 13:11:00,
2013-08-14 06:16:00,54.1,38.2,29.99,WNW,292,0.0,0.0,55,0.00,,,0.00,WUHU21623XXSP,2013-08-14 13:16:00,
2013-08-14 06:21:00,53.8,38.4,29.99,WNW,292,0.0,0.0,56,0.00,,,0.00,WUHU21623XXSP,2013-08-14 13:21:00,
2013-08-14 06:26:00,53.8,38.4,29.99,WNW,292,0.0,0.0,56,0.00,,,0.00,WUHU21623XXSP,2013-08-14 13:26:00,
2013-08-14 06:32:00,54.0,38.6,29.99,WNW,292,0.0,0.0,56,0.00,,,0.00,WUHU21623XXSP,2013-08-14 13:32:00,
2013-08-14 06:37:00,54.0,38.6,30.00,WNW,292,0.0,0.0,56,0.00,,,0.00,WUHU21623XXSP,2013-08-14 13:37:00,
2013-08-14 06:42:00,54.1,38.7,30.00,WNW,292,0.0,0.0,56,0.00,,,0.00,WUHU21623XXSP,2013-08-14 13:42:00,
2013-08-14 06:47:00,54.3,38.9,30.00,WNW,292,0.0,0.0,56,0.00,,,0.00,WUHU21623XXSP,2013-08-14 13:47:00,
2013-08-14 06:53:00,54.3,38.9,30.00,WNW,292,0.0,0.0,56,0.00,,,0.00,WUHU21623XXSP,2013-08-14 13:53:00,
2013-08-14 06:58:00,54.3,39.3,30.00,WSW,247,0.0,0.0,57,0.00,,,0.00,WUHU21623XXSP,2013-08-14 13:58:00,
2013-08-14 07:03:00,54.7,39.7,30.00,WSW,247,0.0,0.0,57,0.00,,,0.00,WUHU21623XXSP,2013-08-14 14:03:00,
2013-08-14 07:08:00,54.7,39.7,30.00,WSW,247,0.0,0.0,57,0.00,,,0.00,WUHU21623XXSP,2013-08-14 14:08:00,
2013-08-14 07:14:00,54.9,39.8,30.00,WSW,247,0.0,0.0,57,0.00,,,0.00,WUHU21623XXSP,2013-08-14 14:14:00,
2013-08-14 07:19:00,55.2,40.2,30.00,WSW,247,0.0,0.0,57,0.00,,,0.00,WUHU21623XXSP,2013-08-14 14:19:00,
2013-08-14 07:24:00,56.1,40.6,30.00,WSW,247,0.0,0.0,56,0.00,,,0.00,WUHU21623XXSP,2013-08-14 14:24:00,
2013-08-14 07:29:00,56.5,40.9,30.00,WSW,247,0.0,0.0,56,0.00,,,0.00,WUHU21623XXSP,2013-08-14 14:29:00,
2013-08-14 07:34:00,57.6,42.0,30.00,WSW,247,0.0,0.0,56,0.00,,,0.00,WUHU21623XXSP,2013-08-14 14:34:00,
2013-08-14 07:40:00,58.3,42.6,30.00,WSW,247,0.0,0.0,56,0.00,,,0.00,WUHU21623XXSP,2013-08-14 14:40:00,
2013-08-14 07:45:00,59.5,43.8,30.00,WSW,247,0.0,0.0,56,0.00,,,0.00,WUHU21623XXSP,2013-08-14 14:45:00,
2013-08-14 07:50:00,60.4,44.2,30.00,WSW,247,0.0,0.0,55,0.00,,,0.00,WUHU21623XXSP,2013-08-14 14:50:00,
2013-08-14 07:55:00,61.3,45.0,30.00,WNW,292,0.0,0.0,55,0.00,,,0.00,WUHU21623XXSP,2013-08-14 14:55:00,
2013-08-14 08:01:00,62.8,45.3,30.00,WNW,292,0.0,0.0,53,0.00,,,0.00,WUHU21623XXSP,2013-08-14 15:01:00,
2013-08-14 08:06:00,63.5,46.0,30.00,WNW,292,0.0,0.0,53,0.00,,,0.00,WUHU21623XXSP,2013-08-14 15:06:00,
2013-08-14 08:11:00,64.9,46.8,30.01,NW,315,0.0,0.0,52,0.00,,,0.00,WUHU21623XXSP,2013-08-14 15:11:00,
2013-08-14 08:16:00,65.8,47.2,30.01,NNE,22,0.0,2.0,51,0.00,,,0.00,WUHU21623XXSP,2013-08-14 15:16:00,
2013-08-14 08:22:00,66.9,47.2,30.01,NNE,22,0.0,2.0,49,0.00,,,0.00,WUHU21623XXSP,2013-08-14 15:22:00,
2013-08-14 08:27:00,67.6,47.2,30.01,NNE,22,0.0,0.0,48,0.00,,,0.00,WUHU21623XXSP,2013-08-14 15:27:00,
2013-08-14 08:32:00,68.2,47.7,30.01,NNE,22,0.7,0.7,48,0.00,,,0.00,WUHU21623XXSP,2013-08-14 15:32:00,
2013-08-14 08:37:00,68.9,47.2,30.01,NNE,22,0.0,0.7,46,0.00,,,0.00,WUHU21623XXSP,2013-08-14 15:37:00,
2013-08-14 08:43:00,69.4,47.1,30.01,NE,45,0.0,0.0,45,0.00,,,0.00,WUHU21623XXSP,2013-08-14 15:43:00,
2013-08-14 08:48:00,70.5,48.0,30.01,NE,45,0.0,0.0,45,0.00,,,0.00,WUHU21623XXSP,2013-08-14 15:48:00,
2013-08-14 08:54:00,71.2,48.1,30.01,NE,45,0.0,2.7,44,0.00,,,0.00,WUHU21623XXSP,2013-08-14 15:54:00,
2013-08-14 08:59:00,72.7,49.4,30.01,NE,45,1.3,1.3,44,0.00,,,0.00,WUHU21623XXSP,2013-08-14 15:59:00,
2013-08-14 09:04:00,73.9,49.3,30.01,NNE,22,1.6,1.8,42,0.00,,,0.00,WUHU21623XXSP,2013-08-14 16:04:00,
2013-08-14 09:09:00,74.8,49.5,30.01,NNE,22,0.0,4.7,41,0.00,,,0.00,WUHU21623XXSP,2013-08-14 16:09:00,
2013-08-14 09:15:00,75.0,49.1,30.01,NE,45,4.5,4.7,40,0.00,,,0.00,WUHU21623XXSP,2013-08-14 16:15:00,
2013-08-14 09:20:00,75.0,49.1,30.01,NE,45,3.1,4.5,40,0.00,,,0.00,WUHU21623XXSP,2013-08-14 16:20:00,
2013-08-14 09:25:00,75.2,49.3,30.01,NE,45,0.0,4.3,40,0.00,,,0.00,WUHU21623XXSP,2013-08-14 16:25:00,
2013-08-14 09:30:00,75.7,49.8,30.01,NNE,22,0.0,3.6,40,0.00,,,0.00,WUHU21623XXSP,2013-08-14 16:30:00,
2013-08-14 09:36:00,76.1,50.1,30.01,NE,45,2.0,2.0,40,0.00,,,0.00,WUHU21623XXSP,2013-08-14 16:36:00,
2013-08-14 09:41:00,76.8,50.0,30.01,NNE,22,1.1,2.7,39,0.00,,,0.00,WUHU21623XXSP,2013-08-14 16:41:00,
2013-08-14 09:46:00,77.0,50.9,30.01,NNW,337,3.1,3.1,40,0.00,,,0.00,WUHU21623XXSP,2013-08-14 16:46:00,
2013-08-14 09:52:00,77.9,50.9,30.01,NE,45,2.0,3.1,39,0.00,,,0.00,WUHU21623XXSP,2013-08-14 16:52:00,
2013-08-14 09:57:00,78.6,50.8,30.01,NNE,22,3.1,3.1,38,0.00,,,0.00,WUHU21623XXSP,2013-08-14 16:57:00,
2013-08-14 10:03:00,79.3,51.5,30.00,NE,45,3.6,3.6,38,0.00,,,0.00,WUHU21623XXSP,2013-08-14 17:03:00,
2013-08-14 10:08:00,80.1,52.1,30.00,NNW,337,3.1,3.6,38,0.00,,,0.00,WUHU21623XXSP,2013-08-14 17:08:00,
2013-08-14 10:13:00,80.6,51.8,30.00,North,0,0.0,3.1,37,0.00,,,0.00,WUHU21623XXSP,2013-08-14 17:13:00,
2013-08-14 10:18:00,81.3,52.4,30.00,NE,45,0.0,1.3,37,0.00,,,0.00,WUHU21623XXSP,2013-08-14 17:18:00,
2013-08-14 10:24:00,82.0,52.3,30.00,NNE,22,4.3,4.3,36,0.00,,,0.00,WUHU21623XXSP,2013-08-14 17:24:00,
2013-08-14 10:29:00,82.6,52.0,30.00,NNW,337,0.0,4.5,35,0.00,,,0.00,WUHU21623XXSP,2013-08-14 17:29:00,
2013-08-14 10:34:00,83.1,52.4,30.00,ESE,112,0.0,4.5,35,0.00,,,0.00,WUHU21623XXSP,2013-08-14 17:34:00,
2013-08-14 10:39:00,83.5,51.2,30.00,ENE,67,0.0,1.1,33,0.00,,,0.00,WUHU21623XXSP,2013-08-14 17:39:00,
2013-08-14 10:45:00,84.0,52.5,30.00,NNW,337,6.7,6.7,34,0.00,,,0.00,WUHU21623XXSP,2013-08-14 17:45:00,
2013-08-14 10:50:00,84.6,53.0,30.00,WSW,247,5.1,6.7,34,0.00,,,0.00,WUHU21623XXSP,2013-08-14 17:50:00,
2013-08-14 10:55:00,85.1,52.6,30.00,NE,45,0.0,5.6,33,0.00,,,0.00,WUHU21623XXSP,2013-08-14 17:55:00,
2013-08-14 11:01:00,85.3,52.8,30.00,NNW,337,0.7,5.6,33,0.00,,,0.00,WUHU21623XXSP,2013-08-14 18:01:00,
2013-08-14 11:06:00,85.6,53.1,29.99,NNE,22,4.0,4.0,33,0.00,,,0.00,WUHU21623XXSP,2013-08-14 18:06:00,
2013-08-14 11:11:00,85.8,52.5,29.99,WSW,247,0.0,4.0,32,0.00,,,0.00,WUHU21623XXSP,2013-08-14 18:11:00,
2013-08-14 11:17:00,86.2,52.8,29.99,NE,45,3.8,4.3,32,0.00,,,0.00,WUHU21623XXSP,2013-08-14 18:17:00,
2013-08-14 11:24:00,86.2,52.8,29.99,NNW,337,4.9,4.9,32,0.00,,,0.00,WUHU21623XXSP,2013-08-14 18:24:00,
2013-08-14 11:29:00,86.5,53.9,29.99,ENE,67,1.3,4.9,33,0.00,,,0.00,WUHU21623XXSP,2013-08-14 18:29:00,
2013-08-14 11:34:00,87.4,53.8,29.98,NE,45,0.2,7.6,32,0.00,,,0.00,WUHU21623XXSP,2013-08-14 18:34:00,
2013-08-14 11:39:00,87.6,53.2,29.98,West,270,0.0,7.6,31,0.00,,,0.00,WUHU21623XXSP,2013-08-14 18:39:00,
2013-08-14 11:45:00,88.3,53.8,29.98,NE,45,1.1,4.5,31,0.00,,,0.00,WUHU21623XXSP,2013-08-14 18:45:00,
2013-08-14 11:50:00,88.5,54.0,29.98,North,0,0.0,4.5,31,0.00,,,0.00,WUHU21623XXSP,2013-08-14 18:50:00,
2013-08-14 11:55:00,89.1,54.4,29.98,North,0,0.0,0.0,31,0.00,,,0.00,WUHU21623XXSP,2013-08-14 18:55:00,
2013-08-14 12:01:00,89.8,55.1,29.98,NNE,22,2.9,3.8,31,0.00,,,0.00,WUHU21623XXSP,2013-08-14 19:01:00,
2013-08-14 12:06:00,89.8,53.2,29.97,NNE,22,5.4,11.0,29,0.00,,,0.00,WUHU21623XXSP,2013-08-14 19:06:00,
2013-08-14 12:12:00,89.8,53.2,29.97,NNE,22,4.0,11.0,29,0.00,,,0.00,WUHU21623XXSP,2013-08-14 19:12:00,
2013-08-14 12:18:00,89.4,54.8,29.97,North,0,0.0,4.0,31,0.00,,,0.00,WUHU21623XXSP,2013-08-14 19:18:00,
2013-08-14 12:23:00,90.0,55.3,29.97,NE,45,4.5,4.5,31,0.00,,,0.00,WUHU21623XXSP,2013-08-14 19:23:00,
2013-08-14 12:28:00,90.7,54.0,29.96,NNE,22,1.6,6.3,29,0.00,,,0.00,WUHU21623XXSP,2013-08-14 19:28:00,
2013-08-14 12:34:00,90.5,53.9,29.96,NNE,22,1.3,6.3,29,0.00,,,0.00,WUHU21623XXSP,2013-08-14 19:34:00,
2013-08-14 12:39:00,90.5,53.9,29.96,NNW,337,5.6,7.4,29,0.00,,,0.00,WUHU21623XXSP,2013-08-14 19:39:00,
2013-08-14 12:45:00,90.5,52.8,29.97,NNE,22,10.3,10.3,28,0.00,,,0.00,WUHU21623XXSP,2013-08-14 19:45:00,
2013-08-14 12:50:00,90.0,53.4,29.96,NNW,337,2.2,10.3,29,0.00,,,0.00,WUHU21623XXSP,2013-08-14 19:50:00,
2013-08-14 12:55:00,89.4,52.9,29.97,NE,45,0.0,6.3,29,0.00,,,0.00,WUHU21623XXSP,2013-08-14 19:55:00,
2013-08-14 13:00:00,89.4,52.9,29.97,NE,45,1.3,2.7,29,0.00,,,0.00,WUHU21623XXSP,2013-08-14 20:00:00,
2013-08-14 13:06:00,88.9,52.4,29.96,North,0,0.0,5.8,29,0.00,,,0.00,WUHU21623XXSP,2013-08-14 20:06:00,
2013-08-14 13:11:00,88.7,52.3,29.96,NE,45,5.6,5.8,29,0.00,,,0.00,WUHU21623XXSP,2013-08-14 20:11:00,
2013-08-14 13:16:00,88.3,53.0,29.96,NNE,22,5.4,5.6,30,0.00,,,0.00,WUHU21623XXSP,2013-08-14 20:16:00,
2013-08-14 13:21:00,88.3,53.0,29.96,ENE,67,3.6,5.8,30,0.00,,,0.00,WUHU21623XXSP,2013-08-14 20:21:00,
2013-08-14 13:27:00,88.3,53.8,29.96,NNE,22,0.0,3.6,31,0.00,,,0.00,WUHU21623XXSP,2013-08-14 20:27:00,
2013-08-14 13:34:00,88.9,52.4,29.95,NNE,22,6.0,6.0,29,0.00,,,0.00,WUHU21623XXSP,2013-08-14 20:34:00,
2013-08-14 13:41:00,89.4,54.8,29.95,NE,45,6.9,6.9,31,0.00,,,0.00,WUHU21623XXSP,2013-08-14 20:41:00,
2013-08-14 13:47:00,90.5,53.9,29.96,ENE,67,0.0,6.9,29,0.00,,,0.00,WUHU21623XXSP,2013-08-14 20:47:00,
2013-08-14 13:52:00,90.7,54.0,29.95,North,0,2.7,6.5,29,0.00,,,0.00,WUHU21623XXSP,2013-08-14 20:52:00,
2013-08-14 13:57:00,90.7,54.0,29.95,North,0,4.5,5.4,29,0.00,,,0.00,WUHU21623XXSP,2013-08-14 20:57:00,
2013-08-14 14:03:00,90.7,52.9,29.95,NNE,22,4.7,6.0,28,0.00,,,0.00,WUHU21623XXSP,2013-08-14 21:03:00,
2013-08-14 14:09:00,90.5,52.8,29.95,North,0,2.7,9.6,28,0.00,,,0.00,WUHU21623XXSP,2013-08-14 21:09:00,
2013-08-14 14:14:00,90.3,52.6,29.95,ENE,67,0.7,5.6,28,0.00,,,0.00,WUHU21623XXSP,2013-08-14 21:14:00,
2013-08-14 14:19:00,89.8,52.1,29.95,NNE,22,10.3,10.3,28,0.00,,,0.00,WUHU21623XXSP,2013-08-14 21:19:00,
2013-08-14 14:24:00,89.8,52.1,29.95,NE,45,5.1,10.3,28,0.00,,,0.00,WUHU21623XXSP,2013-08-14 21:24:00,
2013-08-14 14:30:00,90.0,52.3,29.95,NNW,337,4.9,5.8,28,0.00,,,0.00,WUHU21623XXSP,2013-08-14 21:30:00,
2013-08-14 14:35:00,90.1,52.4,29.95,NNE,22,0.0,5.8,28,0.00,,,0.00,WUHU21623XXSP,2013-08-14 21:35:00,
2013-08-14 14:40:00,90.5,53.9,29.94,NNE,22,6.9,9.6,29,0.00,,,0.00,WUHU21623XXSP,2013-08-14 21:40:00,
2013-08-14 14:45:00,90.7,52.9,29.94,East,90,6.7,9.6,28,0.00,,,0.00,WUHU21623XXSP,2013-08-14 21:45:00,
2013-08-14 14:51:00,90.7,52.9,29.94,SE,135,0.4,6.7,28,0.00,,,0.00,WUHU21623XXSP,2013-08-14 21:51:00,
2013-08-14 14:56:00,90.3,53.7,29.94,NE,45,6.0,6.0,29,0.00,,,0.00,WUHU21623XXSP,2013-08-14 21:56:00,
2013-08-14 15:02:00,90.7,54.0,29.94,NE,45,0.0,6.0,29,0.00,,,0.00,WUHU21623XXSP,2013-08-14 22:02:00,
2013-08-14 15:07:00,90.9,55.3,29.94,NW,315,1.6,1.6,30,0.00,,,0.00,WUHU21623XXSP,2013-08-14 22:07:00,
2013-08-14 15:12:00,90.9,55.3,29.94,West,270,4.5,4.5,30,0.00,,,0.00,WUHU21623XXSP,2013-08-14 22:12:00,
2013-08-14 15:18:00,91.0,55.4,29.93,WNW,292,0.2,4.5,30,0.00,,,0.00,WUHU21623XXSP,2013-08-14 22:18:00,
2013-08-14 15:23:00,90.9,54.2,29.94,SE,135,0.0,10.1,29,0.00,,,0.00,WUHU21623XXSP,2013-08-14 22:23:00,
2013-08-14 15:28:00,90.7,54.0,29.93,NNW,337,2.9,10.1,29,0.00,,,0.00,WUHU21623XXSP,2013-08-14 22:28:00,
2013-08-14 15:33:00,90.5,55.0,29.93,SW,225,3.6,3.6,30,0.00,,,0.00,WUHU21623XXSP,2013-08-14 22:33:00,
2013-08-14 15:39:00,90.3,53.7,29.93,ENE,67,2.9,3.6,29,0.00,,,0.00,WUHU21623XXSP,2013-08-14 22:39:00,
2013-08-14 15:44:00,90.1,53.5,29.93,NE,45,0.7,2.9,29,0.00,,,0.00,WUHU21623XXSP,2013-08-14 22:44:00,
2013-08-14 15:49:00,89.4,54.0,29.93,West,270,1.8,5.1,30,0.00,,,0.00,WUHU21623XXSP,2013-08-14 22:49:00,
2013-08-14 15:54:00,89.4,54.8,29.93,NNW,337,0.0,1.8,31,0.00,,,0.00,WUHU21623XXSP,2013-08-14 22:54:00,
2013-08-14 16:00:00,89.2,54.6,29.93,West,270,2.0,3.6,31,0.00,,,0.00,WUHU21623XXSP,2013-08-14 23:00:00,
2013-08-14 16:05:00,89.1,52.6,29.93,WSW,247,8.7,8.7,29,0.00,,,0.00,WUHU21623XXSP,2013-08-14 23:05:00,
2013-08-14 16:10:00,88.9,53.5,29.93,WSW,247,1.6,8.7,30,0.00,,,0.00,WUHU21623XXSP,2013-08-14 23:10:00,
2013-08-14 16:16:00,88.7,54.1,29.93,NNE,22,3.4,3.4,31,0.00,,,0.00,WUHU21623XXSP,2013-08-14 23:16:00,
2013-08-14 16:21:00,88.5,54.0,29.93,NNW,337,6.3,6.3,31,0.00,,,0.00,WUHU21623XXSP,2013-08-14 23:21:00,
2013-08-14 16:27:00,88.3,53.8,29.93,WSW,247,3.1,6.3,31,0.00,,,0.00,WUHU21623XXSP,2013-08-14 23:27:00,
2013-08-14 16:32:00,88.2,53.6,29.92,WSW,247,5.1,5.1,31,0.00,,,0.00,WUHU21623XXSP,2013-08-14 23:32:00,
2013-08-14 16:37:00,88.0,53.5,29.92,WSW,247,0.0,5.1,31,0.00,,,0.00,WUHU21623XXSP,2013-08-14 23:37:00,
2013-08-14 16:42:00,88.2,53.6,29.92,WSW,247,1.8,6.9,31,0.00,,,0.00,WUHU21623XXSP,2013-08-14 23:42:00,
2013-08-14 16:47:00,88.2,54.4,29.92,WSW,247,5.8,6.9,32,0.00,,,0.00,WUHU21623XXSP,2013-08-14 23:47:00,
2013-08-14 16:53:00,88.0,54.3,29.92,WSW,247,4.5,5.8,32,0.00,,,0.00,WUHU21623XXSP,2013-08-14 23:53:00,
2013-08-14 16:58:00,87.6,53.2,29.92,WSW,247,5.6,5.6,31,0.00,,,0.00,WUHU21623XXSP,2013-08-14 23:58:00,
2013-08-14 17:03:00,87.4,53.8,29.92,NE,45,3.1,5.6,32,0.00,,,0.00,WUHU21623XXSP,2013-08-15 00:03:00,
2013-08-14 17:08:00,86.9,53.4,29.92,NE,45,0.0,3.1,32,0.00,,,0.00,WUHU21623XXSP,2013-08-15 00:08:00,
2013-08-14 17:14:00,86.5,53.1,29.92,NNW,337,1.8,8.3,32,0.00,,,0.00,WUHU21623XXSP,2013-08-15 00:14:00,
2013-08-14 17:19:00,85.8,53.3,29.92,West,270,3.4,8.3,33,0.00,,,0.00,WUHU21623XXSP,2013-08-15 00:19:00,
2013-08-14 17:24:00,85.5,53.0,29.92,NNW,337,9.8,9.8,33,0.00,,,0.00,WUHU21623XXSP,2013-08-15 00:24:00,
2013-08-14 17:29:00,84.9,53.3,29.93,NE,45,4.0,9.8,34,0.00,,,0.00,WUHU21623XXSP,2013-08-15 00:29:00,
2013-08-14 17:35:00,84.7,53.1,29.92,NNW,337,12.1,12.1,34,0.00,,,0.00,WUHU21623XXSP,2013-08-15 00:35:00,
2013-08-14 17:40:00,84.6,53.0,29.93,WSW,247,0.0,12.1,34,0.00,,,0.00,WUHU21623XXSP,2013-08-15 00:40:00,
2013-08-14 17:45:00,84.4,52.8,29.93,NNW,337,1.3,1.8,34,0.00,,,0.00,WUHU21623XXSP,2013-08-15 00:45:00,
2013-08-14 17:50:00,84.2,53.4,29.93,NW,315,8.3,8.3,35,0.00,,,0.00,WUHU21623XXSP,2013-08-15 00:50:00,
2013-08-14 17:56:00,84.0,53.3,29.92,WSW,247,2.0,8.3,35,0.00,,,0.00,WUHU21623XXSP,2013-08-15 00:56:00,
2013-08-14 18:01:00,84.0,53.3,29.93,WNW,292,0.9,2.0,35,0.00,,,0.00,WUHU21623XXSP,2013-08-15 01:01:00,
2013-08-14 18:06:00,83.5,52.8,29.92,North,0,3.4,3.6,35,0.00,,,0.00,WUHU21623XXSP,2013-08-15 01:06:00,
2013-08-14 18:11:00,83.1,53.2,29.92,WSW,247,3.1,3.4,36,0.00,,,0.00,WUHU21623XXSP,2013-08-15 01:11:00,
2013-08-14 18:16:00,82.6,52.8,29.92,NE,45,4.3,7.4,36,0.00,,,0.00,WUHU21623XXSP,2013-08-15 01:16:00,
2013-08-14 18:22:00,82.2,52.4,29.93,North,0,1.3,7.4,36,0.00,,,0.00,WUHU21623XXSP,2013-08-15 01:22:00,
2013-08-14 18:27:00,81.7,52.0,29.92,WSW,247,0.7,2.5,36,0.00,,,0.00,WUHU21623XXSP,2013-08-15 01:27:00,
2013-08-14 18:32:00,81.3,51.7,29.93,South,180,0.7,3.1,36,0.00,,,0.00,WUHU21623XXSP,2013-08-15 01:32:00,
2013-08-14 18:37:00,81.1,52.3,29.92,NE,45,8.1,8.1,37,0.00,,,0.00,WUHU21623XXSP,2013-08-15 01:37:00,
2013-08-14 18:43:00,80.6,51.8,29.92,NNE,22,14.5,14.5,37,0.00,,,0.00,WUHU21623XXSP,2013-08-15 01:43:00,
2013-08-14 18:48:00,80.4,51.7,29.92,NW,315,4.0,14.5,37,0.00,,,0.00,WUHU21623XXSP,2013-08-15 01:48:00,
2013-08-14 18:53:00,80.2,51.5,29.92,NNW,337,0.0,4.3,37,0.00,,,0.00,WUHU21623XXSP,2013-08-15 01:53:00,
2013-08-14 18:58:00,79.9,51.2,29.92,SSW,202,0.4,2.7,37,0.00,,,0.00,WUHU21623XXSP,2013-08-15 01:58:00,
2013-08-14 19:04:00,79.9,51.9,29.93,NE,45,6.3,6.3,38,0.00,,,0.00,WUHU21623XXSP,2013-08-15 02:04:00,
2013-08-14 19:09:00,79.5,51.6,29.93,NNE,22,0.0,6.9,38,0.00,,,0.00,WUHU21623XXSP,2013-08-15 02:09:00,
2013-08-14 19:14:00,79.3,51.5,29.93,WNW,292,4.5,6.9,38,0.00,,,0.00,WUHU21623XXSP,2013-08-15 02:14:00,
2013-08-14 19:19:00,79.2,52.1,29.93,NE,45,1.8,4.7,39,0.00,,,0.00,WUHU21623XXSP,2013-08-15 02:19:00,
2013-08-14 19:25:00,79.0,51.9,29.93,West,270,1.6,4.7,39,0.00,,,0.00,WUHU21623XXSP,2013-08-15 02:25:00,
2013-08-14 19:30:00,78.6,51.6,29.93,West,270,1.1,2.9,39,0.00,,,0.00,WUHU21623XXSP,2013-08-15 02:30:00,
2013-08-14 19:35:00,78.4,51.4,29.93,NNW,337,0.0,2.9,39,0.00,,,0.00,WUHU21623XXSP,2013-08-15 02:35:00,
2013-08-14 19:40:00,78.1,51.1,29.93,NE,45,0.7,1.6,39,0.00,,,0.00,WUHU21623XXSP,2013-08-15 02:40:00,
2013-08-14 19:46:00,77.7,50.8,29.94,North,0,0.0,3.6,39,0.00,,,0.00,WUHU21623XXSP,2013-08-15 02:46:00,
2013-08-14 19:51:00,77.4,51.2,29.94,NNE,22,2.0,3.6,40,0.00,,,0.00,WUHU21623XXSP,2013-08-15 02:51:00,
2013-08-14 19:56:00,76.8,51.4,29.94,NE,45,3.4,3.4,41,0.00,,,0.00,WUHU21623XXSP,2013-08-15 02:56:00,
2013-08-14 20:01:00,76.3,50.9,29.94,NNW,337,0.0,3.4,41,0.00,,,0.00,WUHU21623XXSP,2013-08-15 03:01:00,
2013-08-14 20:06:00,75.9,50.5,29.94,NW,315,0.7,2.7,41,0.00,,,0.00,WUHU21623XXSP,2013-08-15 03:06:00,
2013-08-14 20:12:00,75.6,50.8,29.94,NE,45,6.3,6.3,42,0.00,,,0.00,WUHU21623XXSP,2013-08-15 03:12:00,
2013-08-14 20:17:00,75.0,50.3,29.94,North,0,3.6,6.3,42,0.00,,,0.00,WUHU21623XXSP,2013-08-15 03:17:00,
2013-08-14 20:22:00,74.5,50.4,29.95,North,0,0.9,3.6,43,0.00,,,0.00,WUHU21623XXSP,2013-08-15 03:22:00,
2013-08-14 20:27:00,74.1,50.1,29.95,WSW,247,2.5,3.6,43,0.00,,,0.00,WUHU21623XXSP,2013-08-15 03:27:00,
2013-08-14 20:33:00,73.8,49.8,29.95,North,0,0.0,2.5,43,0.00,,,0.00,WUHU21623XXSP,2013-08-15 03:33:00,
2013-08-14 20:38:00,73.2,49.9,29.95,NNW,337,3.6,3.6,44,0.00,,,0.00,WUHU21623XXSP,2013-08-15 03:38:00,
2013-08-14 20:43:00,73.2,49.9,29.96,NNE,22,1.3,3.6,44,0.00,,,0.00,WUHU21623XXSP,2013-08-15 03:43:00,
2013-08-14 20:48:00,72.7,49.4,29.96,North,0,0.0,3.1,44,0.00,,,0.00,WUHU21623XXSP,2013-08-15 03:48:00,
2013-08-14 20:54:00,72.5,49.2,29.96,NNE,22,0.0,1.6,44,0.00,,,0.00,WUHU21623XXSP,2013-08-15 03:54:00,
2013-08-14 20:59:00,72.3,49.7,29.96,NNW,337,0.9,0.9,45,0.00,,,0.00,WUHU21623XXSP,2013-08-15 03:59:00,
2013-08-14 21:04:00,71.8,49.2,29.96,NE,45,1.8,2.7,45,0.00,,,0.00,WUHU21623XXSP,2013-08-15 04:04:00,
2013-08-14 21:09:00,71.4,48.8,29.97,NE,45,5.6,5.6,45,0.00,,,0.00,WUHU21623XXSP,2013-08-15 04:09:00,
2013-08-14 21:15:00,70.7,48.2,29.97,NE,45,3.8,5.6,45,0.00,,,0.00,WUHU21623XXSP,2013-08-15 04:15:00,
2013-08-14 21:20:00,70.5,48.0,29.97,NNE,22,2.9,6.9,45,0.00,,,0.00,WUHU21623XXSP,2013-08-15 04:20:00,
2013-08-14 21:25:00,70.2,48.3,29.98,NNE,22,2.2,6.9,46,0.00,,,0.00,WUHU21623XXSP,2013-08-15 04:25:00,
2013-08-14 21:30:00,69.8,48.0,29.98,NE,45,0.0,3.4,46,0.00,,,0.00,WUHU21623XXSP,2013-08-15 04:30:00,
2013-08-14 21:36:00,69.6,47.8,29.98,NE,45,2.0,2.7,46,0.00,,,0.00,WUHU21623XXSP,2013-08-15 04:36:00,
2013-08-14 21:41:00,69.4,47.7,29.98,NNW,337,1.6,5.6,46,0.00,,,0.00,WUHU21623XXSP,2013-08-15 04:41:00,
2013-08-14 21:46:00,69.1,47.3,29.98,NNW,337,1.6,5.6,46,0.00,,,0.00,WUHU21623XXSP,2013-08-15 04:46:00,
2013-08-14 21:51:00,68.9,47.2,29.98,NW,315,0.0,3.1,46,0.00,,,0.00,WUHU21623XXSP,2013-08-15 04:51:00,
2013-08-14 21:57:00,68.7,47.0,29.99,NNE,22,0.0,2.5,46,0.00,,,0.00,WUHU21623XXSP,2013-08-15 04:57:00,
2013-08-14 22:02:00,68.7,47.0,29.99,NNE,22,0.0,0.0,46,0.00,,,0.00,WUHU21623XXSP,2013-08-15 05:02:00,
2013-08-14 22:07:00,68.5,46.9,29.98,North,0,0.0,1.1,46,0.00,,,0.00,WUHU21623XXSP,2013-08-15 05:07:00,
2013-08-14 22:12:00,68.4,46.7,29.99,North,0,0.0,1.6,46,0.00,,,0.00,WUHU21623XXSP,2013-08-15 05:12:00,
2013-08-14 22:17:00,68.2,46.5,29.99,North,0,0.0,0.0,46,0.00,,,0.00,WUHU21623XXSP,2013-08-15 05:17:00,
2013-08-14 22:23:00,67.8,46.2,29.99,North,0,0.0,0.0,46,0.00,,,0.00,WUHU21623XXSP,2013-08-15 05:23:00,
2013-08-14 22:28:00,67.6,46.0,29.99,North,0,0.0,0.0,46,0.00,,,0.00,WUHU21623XXSP,2013-08-15 05:28:00,
2013-08-14 22:33:00,67.1,45.6,29.99,North,0,0.0,0.0,46,0.00,,,0.00,WUHU21623XXSP,2013-08-15 05:33:00,
2013-08-14 22:38:00,66.7,45.8,29.99,North,0,0.0,0.0,47,0.00,,,0.00,WUHU21623XXSP,2013-08-15 05:38:00,
2013-08-14 22:44:00,66.4,45.5,29.99,North,0,0.0,0.0,47,0.00,,,0.00,WUHU21623XXSP,2013-08-15 05:44:00,
2013-08-14 22:49:00,66.0,45.2,29.99,North,0,0.0,0.0,47,0.00,,,0.00,WUHU21623XXSP,2013-08-15 05:49:00,
2013-08-14 22:54:00,66.0,45.2,29.99,North,0,0.0,0.0,47,0.00,,,0.00,WUHU21623XXSP,2013-08-15 05:54:00,
2013-08-14 22:59:00,65.5,45.2,30.00,North,0,0.0,0.0,48,0.00,,,0.00,WUHU21623XXSP,2013-08-15 05:59:00,
2013-08-14 23:05:00,65.3,45.0,29.99,North,0,0.0,0.0,48,0.00,,,0.00,WUHU21623XXSP,2013-08-15 06:05:00,
2013-08-14 23:10:00,64.9,44.7,29.99,North,0,0.0,0.0,48,0.00,,,0.00,WUHU21623XXSP,2013-08-15 06:10:00,
2013-08-14 23:15:00,64.8,45.1,29.99,North,0,0.0,0.0,49,0.00,,,0.00,WUHU21623XXSP,2013-08-15 06:15:00,
2013-08-14 23:20:00,64.4,44.7,29.99,North,0,0.0,0.0,49,0.00,,,0.00,WUHU21623XXSP,2013-08-15 06:20:00,
2013-08-14 23:26:00,64.2,44.6,29.99,North,0,0.0,0.0,49,0.00,,,0.00,WUHU21623XXSP,2013-08-15 06:26:00,
2013-08-14 23:31:00,64.0,44.4,29.99,North,0,0.0,0.0,49,0.00,,,0.00,WUHU21623XXSP,2013-08-15 06:31:00,
2013-08-14 23:36:00,63.7,44.7,29.99,North,0,0.0,0.0,50,0.00,,,0.00,WUHU21623XXSP,2013-08-15 06:36:00,
2013-08-14 23:41:00,63.5,44.5,29.99,North,0,0.0,0.0,50,0.00,,,0.00,WUHU21623XXSP,2013-08-15 06:41:00,
2013-08-14 23:46:00,63.1,44.2,29.99,North,0,0.0,0.0,50,0.00,,,0.00,WUHU21623XXSP,2013-08-15 06:46:00,
2013-08-14 23:52:00,62.8,43.9,29.99,North,0,0.0,0.0,50,0.00,,,0.00,WUHU21623XXSP,2013-08-15 06:52:00,
2013-08-14 23:57:00,62.4,44.0,29.99,North,0,0.0,0.0,51,0.00,,,0.00,WUHU21623XXSP,2013-08-15 06:57:00,